Home > Time Zones > World Clock > Weather > China > Jinan > Past weeks

Flag for China Weather past 2 weeks in Jinan, China

Now
79 °F

Haze.


Feels Like: 79 °F
Forecast: 59 / 70 °F
Wind: 8 mph from Southeast

Location: Tianjin / Zhangguizhu


UV Index: 0 (Low)

Visibility: 3 mi


Pressure: 30.01 "Hg

Humidity: 32%

Dew point: 46 °F

Location of JinanLocation

Historic Weather in Jinan

°F

Jinan temperature yesterday

Maximum temperature yesterday: 81 °F (at 3:00 PM)
Minimum temperature yesterday: 59 °F (at 5:00 AM)
Average temperature yesterday: 69 °F

Past Weeks' High & Low Weather Summary

 TemperatureHumidityPressure
High82 °F (Apr 14, 3:00 PM)94% (Apr 13, 3:00 AM)30.21 "Hg (Apr 13, 3:00 AM)
Low46 °F (Apr 12, 5:00 AM)9% (Apr 16, 5:00 PM)29.77 "Hg (Apr 23, 4:00 PM)
Average62 °F49%30.02 "Hg
* Reported Apr 10 1:00 PM — Apr 25 1:00 PM, Jinan, Weather by CustomWeather, © 2014

Note: Actual official high and low records may vary slightly from our data, if they occured in-between our weather recording intervals... More about our weather records

Advertising

Historic Weather Conditions — Data for Previous 24 hours

 ConditionsComfort  
Time TempWeatherWind HumidityBarometerVisibility
1:00 PM
Apr 25
79 °FHaze.13 mph34%30.04 "Hg3 mi
12:30 PM81 °FClear.3 mph30%30.04 "Hg4 mi
12:00 PM79 °FClear.1 mph30%30.04 "Hg4 mi
11:30 AM79 °FClear.3 mph30%30.04 "Hg4 mi
11:00 AM77 °FClear.3 mph30%30.04 "Hg4 mi
10:30 AM77 °FClear.1 mph30%30.04 "Hg4 mi
10:00 AM75 °FClear.3 mph31%30.04 "Hg4 mi
9:30 AM75 °FClear.3 mph34%30.04 "Hg4 mi
9:00 AM73 °FClear.1 mph38%30.04 "Hg4 mi
8:30 AM70 °FClear.1 mph40%30.04 "Hg4 mi
8:00 AM68 °FHaze.1 mph46%30.07 "Hg3 mi
7:30 AM64 °FClear.1 mph52%30.04 "Hg4 mi
7:00 AM63 °FClear.1 mph56%30.04 "Hg4 mi
6:30 AM61 °FClear.1 mph63%30.04 "Hg4 mi
6:00 AM59 °FClear.1 mph59%30.04 "Hg5 mi
5:30 AM61 °FClear.1 mph59%30.04 "Hg4 mi
5:00 AM59 °FClear.1 mph68%30.01 "Hg4 mi
4:30 AM59 °FClear.1 mph63%30.01 "Hg5 mi
4:00 AM61 °FClear.1 mph59%30.01 "Hg5 mi
3:30 AM61 °FClear.3 mph59%30.01 "Hg5 mi
3:00 AM59 °FClear.6 mph63%30.01 "Hg5 mi
2:30 AM61 °FClear.6 mph59%30.01 "Hg5 mi
2:00 AM63 °FClear.6 mph56%30.01 "Hg5 mi
1:30 AM63 °FClear.6 mph56%30.01 "Hg10 mi
1:00 AM63 °FClear.6 mph64%30.01 "Hg5 mi
12:30 AM61 °FClear.3 mph72%30.01 "Hg5 mi
12:00 AM61 °FClear.6 mph72%30.01 "Hg5 mi
11:30 PM
Apr 24
63 °FClear.6 mph68%30.01 "Hg5 mi
11:00 PM63 °FClear.6 mph64%30.01 "Hg10 mi
10:30 PM64 °FClear.8 mph60%30.01 "Hg10 mi
10:00 PM64 °FClear.8 mph60%30.01 "Hg10 mi
9:30 PM64 °FClear.6 mph56%30.04 "Hg10 mi
9:00 PM64 °FClear.6 mph56%30.04 "Hg5 mi
8:30 PM64 °FClear.6 mph52%30.01 "Hg5 mi
8:00 PM66 °FClear.8 mph49%29.98 "Hg10 mi
7:30 PM68 °FClear.10 mph46%29.98 "Hg4 mi
7:00 PM70 °FClear.10 mph43%29.98 "Hg4 mi
6:30 PM72 °FClear.10 mph41%29.95 "Hg4 mi
6:00 PM73 °FLow level haze.15 mph36%29.95 "Hg5 mi
5:30 PM73 °FLow level haze.17 mph33%29.92 "Hg5 mi
5:00 PM75 °FClear.17 mph31%29.92 "Hg5 mi
4:30 PM77 °FClear.15 mph32%29.92 "Hg5 mi
4:00 PM81 °FSunny.8 mph28%29.92 "Hg10 mi
3:30 PM81 °FPassing clouds.10 mph28%29.92 "HgN/A
3:00 PM81 °FPassing clouds.8 mph28%29.92 "HgN/A
2:30 PM79 °FPassing clouds.8 mph30%29.95 "HgN/A
2:00 PM79 °FPassing clouds.10 mph30%29.95 "HgN/A
Weather by CustomWeather, © 2014

See weather overview